Погода в Фергане

Погода в Фергане : погода сейчас, прогноз погоды и архив. Всё, что Вы хотите узнать о погоде в Фергане!

Поиск расширенной информации на нашем сайте:

Другие новости

Новости СМИ2

Главная страница сайта

Новости сайта

03.07.2017

Напоминаем, что на нашем специализированном сайте Метеоцентр.Азия вы можете получить высокодетализированные автоматические прогнозы погоды по пунктам России, СНГ и мира в авиационном формате (включающие направление и скорость ветра, видимость, явления погоды, количество и форму облачности, нижнюю и верхнюю границу облачности).


Погода в Фергане - сегодня

Время (UTC), дата Ветер
(°,м/с) 
Видим.   Явления Облачность Т
(°С)
Тd
(°С)
f(%) Тe
(°С)
Pmin
(гПа)
dP
(гПа)
Po
(мм)
O2
(г/м3)
Тmin Tmax R s Состояние
почвы
09 18.07.17 350 (С) 20000 м    4/0 средняя 
[Ac cast]
+33.4 +11.3 26 +38  1006.8  -0.6  709  252           
12 18.07.17 300 (СЗ) 20000 м    4/1 1000 м средняя, верхняя 
[Cu hum|Ac cast|Ci fib]
+33.8 +10.2 24 +36  1004.7  -1.9  707  252           
15 18.07.17 310 (СЗ) 20000 м    1/1 1000 м 
[Cu hum]
+29 +13.8 39 +37  1005.7  0.1  707  255    +34.5       
18 18.07.17 тихо ()   н/о    ясно 
+22.6 +15.9 66 +35  1008  0.9  708  260    +34.5       
21 18.07.17 140 (ЮВ) н/о    ясно 
+20.8 +15.2 70 +31  1008.3  -0.2  708  262           
00 19.07.17 130 (ЮВ) 20000 м    ясно 
+19.8 +13.7 68 +29  1008.1  -0.3  708  263    +1.6       
03 19.07.17 130 (ЮВ) 20000 м    ясно 
+25.2 +12.8 46 +32  1008.2  1.1  708  259  +19.6        сухая 
06 19.07.17 280 (З) 10 км    1/1 1000 м 
[Cu hum]
+31.4 +9.5 26 +33  1006.8  -0.1  708  254  +19.6         
09 19.07.17 350 (С) 10 км    3/1 1000 м средняя 
[Cu hum|Ac lent]
+33.9 +11.7 26 +39  1004.8  -1.4  707  251           
12 19.07.17 350 (С) 10 км    4/1 1000 м средняя, верхняя 
[Cu hum|Ac lent|Ci sp]
+33.9 +15.4 33 +45  1003.1  -1.5  706  250           
15 19.07.17 тихо ()   10 км    8/3 1000 м средняя, верхняя 
[Cu med, cong|Ac lent|Cs]
+28.5 +19.3 58 +48  1003.7  -0.3  706  253    +34.4       
18 19.07.17 100 (В) н/о    8/3 1000 м средняя 
[Cu med, cong|Ac lent]
+23.8 +15.5 60 +35  1005  0.1  706  258    +34.4       
21 19.07.17 160 (Ю) н/о    8/4 1000 м средняя 
[Cu med, cong|Ac trans]
+22 +11.9 53 +27  1004.7  -0.4  705  261           
00 20.07.17 150 (ЮВ) 10 км    1/0 верхняя 
[Ci fib]
+20.7 +12.2 58 +26  1005.6  0.2  706  262           
03 20.07.17 тихо ()   10 км    1/0 верхняя 
[Ci fib]
+26.8 +13.2 43 +34  1004.8  0.5  706  256           
06 20.07.17 330 (СЗ) 10 км    1/1 1000 м 
[Cu med, cong]
+31.4 +12.8 32 +38  1003.3  -0.4  706  253  +20.5         
09 20.07.17 250 (З) 10 км    1/1 1000 м 
[Cu med, cong]
+33.8 +12.9 28 +41  1001.9  -0.9  705  250           
12 20.07.17 340 (С) 10 км    1/0 средняя 
[Ac cuf]
+34.6 +12.5 26 +41  1000.5  -1.1  704  250           
15 20.07.17 тихо ()   10 км    1/0 средняя 
[Ac lent]
+28.2 +16.9 50 +42  1001.9  0.1  704  254    +35.1       
18 20.07.17 тихо ()   н/о    ясно 
+23.3 +17.5 70 +39  1003.8  0.9  705  258    +35.1       
21 20.07.17 150 (ЮВ) н/о    ясно 
+21.5 +15.7 70 +33  1004.1  -0.3  705  260           
00 21.07.17 150 (ЮВ) 10 км    1/0 средняя 
[Ac lent]
+21.1 +13 60 +28  1004.4  0.2  705  261           
03 21.07.17 160 (Ю) 20000 м    ясно 
+25.7 +14.5 50 +35  1004  0.7  706  257           
06 21.07.17 360 (С) 20000 м    1/1 1000 м 
[Cu hum]
+32.7 +9.9 25 +35  1002.4  -0.3  705  252  +20.5         
09 21.07.17 350 (С) 20000 м    3/3 1000 м 
[Cu hum]
+34.6 +12.3 26 +40  1000.6  -1.2  704  250           
Время (UTC), дата Ветер
(°,м/с) 
Видим.   Явления Облачность Т
(°С)
Тd
(°С)
f(%) Тe
(°С)
Pmin
(гПа)
dP
(гПа)
Po
(мм)
O2
(г/м3)
Тmin Tmax R s Состояние
почвы

Для получения пояснительной информации подведите курсор к названию столбца.

ПОГОДА в Фергане - архив

Всё, что Вы хотите узнать о погоде в Фергане - удобно и подробно!

Выберите нужную дату (начиная с 1 января 2015* года) и нажмите кнопку "Найти".
Будут отображены архивные сводки погоды по пункту Фергана, начиная с указанной даты.


Отображать данные в формате CSV (для использования в таблицах Excel)


Внимание! Наш архив погоды предназначен исключительно для личного некоммерческого использования в познавательных целях. Если Вам необходимы официальные справки о состоянии погоды (для производственных, юридических, коммерческих и т.п. целей), обращайтесь в органы Росгидромета.

*Примечание: данная дата относится к архиву по метеостанциям СССР (Россия, СНГ, Балтия).
Архив по метеостанциям Зарубежной Европы и Азии (кроме Китая) хранится 10 дней, по другим регионам земного шара (Китай, Африка, Америка, Австралия, Океания) - 1 день.

Фергана - район местоположения метеостанции


Название, широта, долгота, высота метеостанции:
Фергана 40.4°ш. 71.8°д. 605 м над ур. моря [Узбекистан]

Дополнительная информация

В oтличие oт бoльшинства пoгoдных сайтoв мы публикуем пoдрoбную метеoинфoрмацию в детальнoм прoфессиoнальнoм фoрмате.

Характеристики температуры и влажнoсти вoздуха измеряются на высoте 2 м в тени вдали oт зданий и деревьев.
Скoрoсть ветра измеряется на высoте 10 м (на урoвне рoста челoвека скoрoсть ветра ниже в 1.5-2 раза). Если метеoстанция нахoдится в гoрoде или в лесу, тo скoрoсть ветра занижена на 2-4 м/с пo сравнению с oткрытым местoм. Скoрoсть ветра над акватoриями крупных рек и oзёр, а также на вершинах хoлмoв на 2-5 м/с выше, чем в oбычных услoвиях.
Атмoсфернoе давление в разных тoчках местнoсти мoжет значительнo oтличаться oт давления на метеoстанции, в зависимoсти oт услoвий рельефа (при пoдъёме на 10 м давление пoнижается примернo на 1 мм рт.ст.).